Regional Weather Roundup
Issued by NWS

Home | Current Version | Previous Version | Text Only | Print | Product List | Glossary Off
Versions: 1 2 3 4 5 6 7 8 9 10 11 12 13 14 15 16 17 18 19 20 21 22 23 24 25 26 27 28 29 30 31 32 33 34 35 36 37 38 39 40 41 42 43 44 45 46 47 48 49 50

327
ASUS43 KBIS 132010
RWRND

NORTH DAKOTA REGIONAL WEATHER ROUNDUP
NATIONAL WEATHER SERVICE BISMARCK ND
200 PM CST SAT FEB 13 2016

NOTE: "FAIR" INDICATES FEW OR NO CLOUDS BELOW 12,000 FEET WITH NO
SIGNIFICANT WEATHER AND/OR OBSTRUCTIONS TO VISIBILITY.


NDZ001>003-009>011-017-132100-
NORTHWEST NORTH DAKOTA

CITY           SKY/WX    TMP DP  RH WIND       PRES   REMARKS
WILLISTON      CLOUDY    22  15  75 SE10      29.85F WCI  11
MINOT          FLURRIES  18   6  59 SE17G25   29.98F WCI   3
MINOT AFB      CLOUDY    17   8  70 SE23      29.97F WCI  -1
$$

NDZ018>021-031>035-040>046-132100-
SOUTHWEST NORTH DAKOTA

CITY           SKY/WX    TMP DP  RH WIND       PRES   REMARKS
BISMARCK       FLURRIES  16   8  71 SE22G28   30.04F WCI  -2
DICKINSON      CLOUDY    17  14  88 S13G22    29.87R FOG     WCI   4
GARRISON         N/A     13   8  81 S21       29.96F WCI  -5
HETTINGER ARPT CLOUDY    20  18  92 SE14      29.87F FOG     WCI   7
$$

NDZ004>008-012>016-024-026-027-054-132100-
NORTHEAST NORTH DAKOTA

CITY           SKY/WX    TMP DP  RH WIND       PRES   REMARKS
GRAND FORKS    MOSUNNY    9  -2  61 S15       30.35F WCI  -8
GRND FRKS AFB  CLOUDY     7  -4  61 S15       30.32F WCI -10
DEVILS LAKE    CLOUDY     5  -3  69 SE18G28   30.17F WCI -15
$$

NDZ022-023-025-028>030-036>039-047>053-132100-
SOUTHEAST NORTH DAKOTA

CITY           SKY/WX    TMP DP  RH WIND       PRES   REMARKS
FARGO          CLOUDY    11   0  61 SE14      30.35F WCI  -5
JAMESTOWN      CLOUDY     9   0  67 SE20      30.16F WCI -10
$$





USA.gov is the U.S. government's official web portal to all federal, state and local government web resources and services.